FW5449 Weather Reports


Display with metric or nautical units.
time (UTC)temp
F
wind
direction
speed
MPH
gust
MPH
rain 1hr
in
rain 24hr
in
rain mn
in
humidity
%
barometer
mb
20260508135529 50 196 3.0 7.0 0.00 0.00 0.00 84 1021.1
20260508135027 49 176 4.0 7.0 0.00 0.00 0.00 85 1021.3
20260508134524 49 185 4.0 7.0 0.00 0.00 0.00 84 1021.1
20260508134026 49 183 3.0 6.0 0.00 0.00 0.00 85 1021.0
20260508133516 49 196 4.0 7.0 0.00 0.00 0.00 85 1021.0
20260508133017 49 191 4.0 7.0 0.00 0.00 0.00 85 1020.8
20260508132513 49 197 4.0 7.0 0.00 0.00 0.00 85 1020.9
20260508132008 48 205 4.0 7.0 0.00 0.00 0.00 85 1020.7
20260508131501 48 148 3.0 7.0 0.00 0.00 0.00 86 1020.9
20260508131000 48 211 3.0 7.0 0.00 0.00 0.00 86 1020.8
20260508130500 48 191 3.0 7.0 0.00 0.00 0.00 86 1020.8
20260508125958 48 202 3.0 7.0 0.00 0.00 0.00 87 1020.7
20260508125453 47 189 3.0 6.0 0.00 0.00 0.00 87 1020.6
20260508124951 47 179 3.0 6.0 0.00 0.00 0.00 87 1020.6
20260508124453 47 202 3.0 8.0 0.00 0.00 0.00 87 1020.5
20260508124220 47 179 3.0 8.0 0.00 0.00 0.00 88 1020.4
20260508123451 46 210 4.0 8.0 0.00 0.00 0.00 88 1020.3
20260508122950 46 153 4.0 8.0 0.00 0.00 0.00 88 1020.3
20260508122451 46 189 3.0 7.0 0.00 0.00 0.00 89 1020.1
20260508121947 46 158 3.0 7.0 0.00 0.00 0.00 89 1020.1
20260508121448 46 197 3.0 6.0 0.00 0.00 0.00 89 1020.1
20260508120948 46 144 3.0 6.0 0.00 0.00 0.00 88 1020.1
20260508120446 46 169 3.0 6.0 0.00 0.00 0.00 89 1020.0
20260508115945 46 204 3.0 7.0 0.00 0.00 0.00 89 1019.9
20260508115444 46 169 3.0 7.0 0.00 0.00 0.00 90 1020.1
20260508114945 46 137 3.0 7.0 0.00 0.00 0.00 91 1020.0
20260508114442 46 177 3.0 7.0 0.00 0.00 0.00 91 1020.0
20260508113940 47 179 4.0 8.0 0.00 0.00 0.00 92 1019.9
20260508113441 47 181 4.0 8.0 0.00 0.00 0.00 91 1019.9
20260508113205 46 177 4.0 8.0 0.00 0.00 0.00 90 1019.9
20260508112442 47 187 4.0 9.0 0.00 0.00 0.00 88 1019.9
20260508111941 47 176 4.0 9.0 0.00 0.00 0.00 87 1019.9
20260508111438 46 195 4.0 9.0 0.00 0.00 0.00 88 1019.8
20260508111205 46 202 4.0 7.0 0.00 0.00 0.00 88 1019.7
20260508110438 46 175 4.0 7.0 0.00 0.00 0.00 88 1019.6
20260508105937 46 210 4.0 8.0 0.00 0.00 0.00 88 1019.4
20260508105436 46 219 4.0 8.0 0.00 0.00 0.00 87 1019.3
20260508104937 46 240 4.0 7.0 0.00 0.00 0.00 87 1019.3
20260508104438 46 203 4.0 7.0 0.00 0.00 0.00 87 1019.3
20260508103938 46 214 4.0 9.0 0.00 0.00 0.00 87 1019.2
20260508103915 46 190 4.0 9.0 0.00 0.00 0.00 87 1019.2
20260508102932 46 215 3.0 7.0 0.00 0.00 0.00 87 1019.1
20260508102651 46 169 3.0 7.0 0.00 0.00 0.00 88 1019.2
20260508101933 46 208 2.0 6.0 0.00 0.00 0.00 87 1019.1
20260508101423 46 189 3.0 6.0 0.00 0.00 0.00 87 1019.0
20260508101139 47 225 4.0 9.0 0.00 0.00 0.00 87 1019.0
20260508100418 47 225 4.0 9.0 0.00 0.00 0.00 87 1018.8
20260508095902 47 189 4.0 8.0 0.00 0.00 0.00 87 1018.7
20260508095401 47 223 5.0 10.0 0.00 0.00 0.00 87 1018.6
20260508094857 47 218 5.0 10.0 0.00 0.00 0.00 87 1018.5
20260508094359 47 233 4.0 8.0 0.00 0.00 0.00 87 1018.4
20260508094113 47 212 4.0 7.0 0.00 0.00 0.00 86 1018.3
20260508093358 48 213 4.0 7.0 0.00 0.00 0.00 86 1018.3
20260508092859 48 233 4.0 11.0 0.00 0.00 0.00 86 1018.3
20260508092356 48 192 4.0 11.0 0.00 0.00 0.00 85 1018.3
20260508091854 49 196 4.0 10.0 0.00 0.00 0.00 85 1018.3
20260508091356 49 188 5.0 10.0 0.00 0.00 0.00 85 1018.2
20260508090854 49 217 5.0 11.0 0.00 0.00 0.00 84 1018.3
20260508090353 49 181 6.0 11.0 0.00 0.00 0.00 84 1018.2
20260508085851 50 226 6.0 11.0 0.00 0.00 0.00 83 1018.3
20260508085616 50 205 7.0 11.0 0.00 0.00 0.00 83 1018.1
20260508085122 50 233 7.0 11.0 0.00 0.00 0.00 83 1018.2
20260508084350 50 227 7.0 14.0 0.00 0.00 0.00 83 1018.0
20260508083848 50 190 6.0 14.0 0.00 0.00 0.00 84 1018.0
20260508083834 50 201 6.0 11.0 0.00 0.00 0.00 83 1018.1
20260508082846 51 229 6.0 11.0 0.00 0.00 0.00 83 1017.9
20260508082348 51 215 6.0 11.0 0.00 0.00 0.00 83 1017.8
20260508082112 51 189 6.0 10.0 0.00 0.00 0.00 84 1017.8
20260508081347 51 186 5.0 10.0 0.00 0.00 0.00 84 1017.8
20260508080847 51 181 4.0 9.0 0.00 0.00 0.00 83 1017.8
20260508080346 51 194 4.0 7.0 0.00 0.00 0.00 83 1017.7
20260508075845 51 199 4.0 9.0 0.00 0.00 0.00 83 1017.8
20260508075348 51 165 4.0 9.0 0.00 0.00 0.00 83 1017.7
20260508074843 51 196 4.0 8.0 0.00 0.00 0.00 82 1017.7
20260508074350 52 233 4.0 8.0 0.00 0.00 0.00 82 1017.7
20260508073843 52 242 5.0 10.0 0.00 0.00 0.00 81 1017.7
20260508073336 52 227 6.0 10.0 0.00 0.00 0.00 82 1017.7
20260508072833 52 236 5.0 10.0 0.00 0.00 0.00 81 1017.6
20260508072329 53 210 6.0 9.0 0.00 0.00 0.00 82 1017.6
20260508072053 53 211 6.0 9.0 0.00 0.00 0.00 81 1017.5
20260508071317 53 231 5.0 9.0 0.00 0.00 0.00 81 1017.4
20260508070817 53 215 5.0 9.0 0.00 0.00 0.00 81 1017.5
20260508070317 53 206 6.0 11.0 0.00 0.00 0.00 80 1017.5
20260508065820 54 210 6.0 11.0 0.00 0.00 0.00 80 1017.5
20260508065319 54 200 6.0 9.0 0.00 0.00 0.00 80 1017.3
20260508064818 54 194 5.0 10.0 0.00 0.00 0.00 80 1017.4
20260508064808 54 210 4.0 10.0 0.00 0.00 0.00 80 1017.3
20260508063813 54 194 6.0 11.0 0.00 0.00 0.00 79 1017.4
20260508063314 54 201 6.0 11.0 0.00 0.00 0.00 79 1017.3
20260508062813 55 182 5.0 11.0 0.00 0.00 0.00 78 1017.4
20260508062542 55 214 5.0 9.0 0.00 0.00 0.00 78 1017.2
20260508061813 55 177 6.0 10.0 0.00 0.00 0.00 77 1017.3
20260508061536 55 214 5.0 10.0 0.00 0.00 0.00 77 1017.3
20260508060809 55 207 4.0 8.0 0.00 0.00 0.00 75 1017.3
20260508060308 55 210 5.0 8.0 0.00 0.00 0.00 75 1017.3
20260508055808 55 216 4.0 8.0 0.00 0.00 0.00 74 1017.2
20260508055307 55 213 4.0 8.0 0.00 0.00 0.00 72 1017.3
20260508055032 56 196 5.0 11.0 0.00 0.00 0.00 69 1017.3
20260508054528 56 228 5.0 11.0 0.00 0.00 0.00 67 1017.2
20260508053806 57 169 5.0 8.0 0.00 0.00 0.00 66 1017.2
20260508053304 57 217 5.0 9.0 0.00 0.00 0.00 66 1017.2
20260508052804 57 213 6.0 11.0 0.00 0.00 0.00 65 1017.3
20260508052307 57 214 7.0 11.0 0.00 0.00 0.00 65 1017.2
20260508051803 58 227 6.0 10.0 0.00 0.00 0.00 64 1017.2
20260508051522 58 221 5.0 10.0 0.00 0.00 0.00 65 1017.1
20260508050801 58 231 6.0 11.0 0.00 0.00 0.00 64 1017.0
20260508050301 58 223 6.0 11.0 0.00 0.00 0.00 64 1017.0
20260508045800 58 225 5.0 10.0 0.00 0.00 0.00 65 1017.1
20260508045257 59 203 4.0 9.0 0.00 0.00 0.00 64 1016.9
20260508044758 59 239 4.0 9.0 0.00 0.00 0.00 65 1016.8
20260508044515 60 234 4.0 9.0 0.00 0.00 0.00 66 1016.8
20260508044022 60 225 3.0 8.0 0.00 0.00 0.00 68 1016.8
20260508043511 60 227 4.0 9.0 0.00 0.00 0.00 68 1016.8
20260508042752 60 227 6.0 9.0 0.00 0.00 0.00 68 1016.5
20260508042246 61 233 6.0 12.0 0.00 0.00 0.00 67 1016.4
20260508041745 61 233 6.0 12.0 0.00 0.00 0.00 67 1016.4
20260508041513 61 240 5.0 9.0 0.00 0.00 0.00 68 1016.3
20260508040737 61 226 5.0 9.0 0.00 0.00 0.00 68 1016.3
20260508040238 62 236 4.0 9.0 0.00 0.00 0.00 67 1016.3
20260508035737 62 246 4.0 9.0 0.00 0.00 0.00 66 1016.2
20260508035233 62 234 4.0 9.0 0.00 0.00 0.00 65 1016.0
20260508034733 62 251 4.0 8.0 0.00 0.00 0.00 66 1016.2
20260508034454 62 252 3.0 8.0 0.00 0.00 0.00 67 1016.1
20260508033725 63 258 3.0 6.0 0.00 0.00 0.00 68 1016.1
20260508033223 63 246 4.0 6.0 0.00 0.00 0.00 69 1015.9
20260508032723 64 237 3.0 5.0 0.00 0.00 0.00 69 1015.7
20260508032218 65 239 3.0 5.0 0.00 0.00 0.00 67 1015.6
20260508031719 65 299 3.0 5.0 0.00 0.00 0.00 66 1015.6
20260508031441 66 281 2.0 5.0 0.00 0.00 0.00 64 1015.5
20260508030718 67 308 3.0 5.0 0.00 0.00 0.00 62 1015.4
20260508030217 67 313 3.0 5.0 0.00 0.00 0.00 60 1015.3
20260508025715 68 292 3.0 5.0 0.00 0.00 0.00 59 1015.3
20260508025215 68 321 3.0 4.0 0.00 0.00 0.00 59 1015.2
20260508024717 68 317 3.0 5.0 0.00 0.00 0.00 57 1015.3
20260508024215 68 333 2.0 5.0 0.00 0.00 0.00 58 1015.2
20260508023714 69 348 2.0 4.0 0.00 0.00 0.00 58 1015.2
20260508023205 69 346 3.0 5.0 0.00 0.00 0.00 58 1015.2
20260508022705 70 344 3.0 5.0 0.00 0.00 0.00 57 1015.2
20260508022405 71 350 3.0 6.0 0.00 0.00 0.00 59 1015.2
20260508022249 71 333 2.0 4.0 0.00 0.00 0.00 57 1015.2
20260508021159 71 336 3.0 6.0 0.00 0.00 0.00 59 1015.2
20260508020659 71 358 3.0 6.0 0.00 0.00 0.00 58 1015.2
20260508020202 71 356 3.0 6.0 0.00 0.00 0.00 58 1015.3
20260508015700 72 3 3.0 6.0 0.00 0.00 0.00 54 1015.3
20260508015201 72 341 2.0 4.0 0.00 0.00 0.00 51 1015.3
20260508014652 72 9 2.0 4.0 0.00 0.00 0.00 52 1015.3
20260508014150 72 319 1.0 3.0 0.00 0.00 0.00 51 1015.5
20260508013647 72 249 0.0 2.0 0.00 0.00 0.00 51 1015.5
20260508013152 73 51 1.0 3.0 0.00 0.00 0.00 49 1015.6
20260508012635 73 51 1.0 3.0 0.00 0.00 0.00 51 1015.6
20260508012125 73 45 2.0 6.0 0.00 0.00 0.00 50 1015.7
20260508011609 73 45 2.0 6.0 0.00 0.00 0.00 49 1015.6
20260508011104 73 11 1.0 4.0 0.00 0.00 0.00 51 1015.7
20260508010602 73 25 1.0 4.0 0.00 0.00 0.00 49 1015.7
20260508010055 73 25 2.0 4.0 0.00 0.00 0.00 52 1015.7
20260508005817 74 6 2.0 4.0 0.00 0.00 0.00 50 1015.8
20260508005054 73 347 2.0 4.0 0.00 0.00 0.00 52 1015.8
20260508004553 73 18 2.0 4.0 0.00 0.00 0.00 51 1015.8
20260508004310 73 347 2.0 4.0 0.00 0.00 0.00 51 1015.9
20260508003544 73 21 1.0 4.0 0.00 0.00 0.00 51 1015.9
20260508003304 73 301 1.0 4.0 0.00 0.00 0.00 52 1015.8
20260508002544 72 346 1.0 4.0 0.00 0.00 0.00 56 1016.0
20260508002044 72 36 1.0 4.0 0.00 0.00 0.00 50 1016.0
20260508001538 72 322 1.0 4.0 0.00 0.00 0.00 54 1016.0
20260508001038 71 150 1.0 4.0 0.00 0.00 0.00 53 1016.0
20260508000540 72 123 2.0 4.0 0.00 0.00 0.00 56 1016.1
20260508000036 71 144 2.0 5.0 0.00 0.00 0.00 54 1016.1
20260507235533 72 17 2.0 5.0 0.00 0.00 0.00 54 1016.1
20260507235028 72 307 2.0 6.0 0.00 0.00 0.00 57 1016.2
20260507234529 73 21 2.0 6.0 0.00 0.00 0.00 54 1016.2
20260507234030 71 65 2.0 6.0 0.00 0.00 0.00 55 1016.3
20260507233522 72 6 2.0 6.0 0.00 0.00 0.00 57 1016.3
20260507233023 73 37 2.0 6.0 0.00 0.00 0.00 55 1016.3
20260507232518 72 329 2.0 7.0 0.00 0.00 0.00 56 1016.4
20260507232014 72 311 2.0 7.0 0.00 0.00 0.00 54 1016.7
20260507231512 71 353 2.0 6.0 0.00 0.00 0.00 58 1016.8
20260507231011 71 38 2.0 6.0 0.00 0.00 0.00 58 1016.8
20260507230504 71 6 2.0 6.0 0.00 0.00 0.00 59 1016.9
20260507230003 71 21 2.0 4.0 0.00 0.00 0.00 60 1016.8
20260507225503 71 275 2.0 5.0 0.00 0.00 0.00 60 1017.0
20260507224949 71 270 3.0 8.0 0.00 0.00 0.00 60 1017.1
20260507224449 71 285 2.0 8.0 0.00 0.00 0.00 59 1017.1
20260507224214 70 265 2.0 5.0 0.00 0.00 0.00 60 1017.0
20260507223449 70 252 3.0 6.0 0.00 0.00 0.00 61 1017.2
20260507222949 71 325 3.0 6.0 0.00 0.00 0.00 60 1017.2
20260507222448 69 275 2.0 9.0 0.00 0.00 0.00 63 1017.3
20260507221949 70 252 3.0 9.0 0.00 0.00 0.00 66 1017.4
20260507221448 69 339 4.0 8.0 0.00 0.00 0.00 65 1017.4
20260507221213 70 168 4.0 8.0 0.00 0.00 0.00 65 1017.5
20260507220452 70 270 3.0 7.0 0.00 0.00 0.00 62 1017.6
20260507215945 69 298 3.0 8.0 0.00 0.00 0.00 64 1017.7
20260507215442 69 323 3.0 8.0 0.00 0.00 0.00 63 1017.6
20260507214942 68 222 3.0 9.0 0.00 0.00 0.00 68 1017.7
20260507214441 70 318 4.0 9.0 0.00 0.00 0.00 62 1017.7
20260507213939 69 245 4.0 8.0 0.00 0.00 0.00 64 1017.7
20260507213437 69 359 4.0 9.0 0.00 0.00 0.00 67 1017.8
20260507212937 69 279 3.0 9.0 0.00 0.00 0.00 67 1017.8
20260507212434 67 19 2.0 8.0 0.00 0.00 0.00 67 1017.8
20260507212151 68 299 2.0 6.0 0.00 0.00 0.00 68 1017.9
20260507211651 68 296 2.0 6.0 0.00 0.00 0.00 66 1017.9
20260507211153 67 218 2.0 5.0 0.00 0.00 0.00 67 1018.1
20260507210426 67 246 2.0 7.0 0.00 0.00 0.00 68 1018.1
20260507210145 67 6 3.0 8.0 0.00 0.00 0.00 67 1018.1
20260507205639 66 287 2.0 8.0 0.00 0.00 0.00 67 1018.3
20260507205138 66 167 3.0 8.0 0.00 0.00 0.00 67 1018.5
20260507204419 67 239 4.0 8.0 0.00 0.00 0.00 70 1018.4
20260507204142 66 265 3.0 8.0 0.00 0.00 0.00 68 1018.6
20260507203417 66 284 2.0 5.0 0.00 0.00 0.00 69 1018.7
20260507202914 66 282 3.0 6.0 0.00 0.00 0.00 67 1018.6
20260507202413 66 283 3.0 7.0 0.00 0.00 0.00 68 1018.8
20260507201907 66 299 4.0 8.0 0.00 0.00 0.00 69 1019.0
20260507201623 66 215 4.0 9.0 0.00 0.00 0.00 68 1019.0
20260507200907 65 93 3.0 9.0 0.00 0.00 0.00 72 1019.0
20260507200404 63 317 3.0 9.0 0.00 0.00 0.00 72 1019.0
20260507195902 64 17 3.0 9.0 0.00 0.00 0.00 72 1019.1
20260507195623 63 294 2.0 7.0 0.00 0.00 0.00 73 1019.1
20260507194901 64 51 2.0 7.0 0.00 0.00 0.00 74 1019.1
20260507194359 62 279 1.0 4.0 0.00 0.00 0.00 75 1019.3
20260507193859 62 16 1.0 4.0 0.00 0.00 0.00 73 1019.2
20260507193351 61 288 3.0 7.0 0.00 0.00 0.00 73 1019.3
20260507192854 61 23 2.0 7.0 0.00 0.00 0.00 74 1019.3
20260507192356 60 77 1.0 4.0 0.00 0.00 0.00 77 1019.3
20260507191843 60 49 2.0 5.0 0.00 0.00 0.00 77 1019.4
20260507191552 60 21 3.0 6.0 0.00 0.00 0.00 77 1019.4
20260507191056 60 22 3.0 6.0 0.00 0.00 0.00 79 1019.5
20260507190333 61 340 2.0 6.0 0.00 0.00 0.00 76 1019.6
20260507185831 59 260 1.0 4.0 0.00 0.00 0.00 76 1019.6
20260507185326 59 105 2.0 4.0 0.00 0.00 0.00 76 1019.7
20260507184823 60 39 2.0 4.0 0.00 0.00 0.00 75 1019.7
20260507184322 60 344 2.0 4.0 0.00 0.00 0.00 78 1019.7
20260507183820 59 292 1.0 4.0 0.00 0.00 0.00 79 1019.7
20260507183318 59 265 1.0 3.0 0.00 0.00 0.00 81 1019.7
20260507182817 59 182 2.0 4.0 0.00 0.00 0.00 81 1019.7
20260507182313 58 337 1.0 4.0 0.00 0.00 0.00 81 1019.7
20260507181812 58 308 1.0 4.0 0.00 0.00 0.00 79 1019.7
20260507181251 59 287 1.0 3.0 0.00 0.00 0.00 81 1019.8
20260507181021 58 203 1.0 3.0 0.00 0.00 0.00 82 1019.8
20260507180236 58 235 2.0 4.0 0.00 0.00 0.00 82 1019.8
20260507175737 58 300 2.0 4.0 0.00 0.00 0.00 83 1019.8
20260507175235 57 239 1.0 4.0 0.00 0.00 0.00 84 1019.9
20260507174733 58 321 1.0 4.0 0.00 0.00 0.00 82 1019.7
20260507174228 57 353 1.0 3.0 0.00 0.00 0.00 86 1019.8
20260507173724 57 345 1.0 3.0 0.00 0.00 0.00 83 1019.9
20260507173222 57 336 0.0 2.0 0.00 0.00 0.00 85 1019.8
20260507172721 56 345 0.0 2.0 0.00 0.00 0.00 85 1019.9
20260507172221 56 345 1.0 3.0 0.00 0.00 0.00 84 1020.0
20260507171712 56 18 1.0 3.0 0.00 0.00 0.00 84 1020.0
20260507171204 56 0 1.0 2.0 0.00 0.00 0.00 87 1020.0
20260507170701 56 335 1.0 3.0 0.00 0.00 0.00 87 1020.0
20260507170200 56 335 2.0 4.0 0.00 0.00 0.00 86 1020.0
20260507165658 56 345 1.0 4.0 0.00 0.00 0.00 88 1020.0
20260507165159 55 37 1.0 3.0 0.00 0.00 0.00 87 1019.9
20260507164658 55 37 1.0 4.0 0.00 0.00 0.00 88 1020.0
20260507164152 55 270 2.0 4.0 0.00 0.00 0.00 87 1019.9
20260507163651 55 27 2.0 4.0 0.00 0.00 0.00 88 1019.9
20260507163148 54 343 2.0 3.0 0.00 0.00 0.00 89 1020.0
20260507162649 54 316 2.0 4.0 0.00 0.00 0.00 90 1020.1
20260507162146 54 4 1.0 4.0 0.00 0.00 0.00 90 1020.0
20260507161641 54 256 1.0 3.0 0.00 0.00 0.00 90 1020.0
20260507161142 54 342 1.0 3.0 0.00 0.00 0.00 90 1019.9
20260507160631 54 343 1.0 3.0 0.00 0.00 0.00 91 1020.0
20260507160113 54 343 2.0 3.0 0.00 0.00 0.00 91 1020.0
20260507155603 53 48 2.0 3.0 0.00 0.00 0.00 90 1020.1
20260507155105 53 332 1.0 3.0 0.00 0.00 0.00 91 1020.1
20260507154604 53 332 1.0 3.0 0.00 0.00 0.00 91 1020.2
20260507154100 53 350 2.0 3.0 0.00 0.00 0.00 92 1020.2
20260507153559 53 333 2.0 4.0 0.00 0.00 0.00 93 1020.2
20260507153057 53 341 3.0 4.0 0.00 0.00 0.00 92 1020.3
20260507152820 53 7 2.0 4.0 0.00 0.00 0.00 92 1020.3
20260507152054 53 304 1.0 4.0 0.00 0.00 0.00 93 1020.3
20260507151542 53 315 1.0 3.0 0.00 0.00 0.00 93 1020.2
20260507151045 53 315 1.0 3.0 0.00 0.00 0.00 93 1020.1
20260507150534 53 293 0.0 1.0 0.00 0.00 0.00 94 1020.2
20260507150025 52 229 0.0 0.0 0.00 0.00 0.00 94 1020.1
20260507145523 52 229 0.0 0.0 0.00 0.00 0.00 94 1020.1
20260507145026 52 229 0.0 0.0 0.00 0.00 0.00 94 1020.1
20260507144518 52 229 0.0 0.0 0.00 0.00 0.00 94 1020.1
20260507144020 52 229 0.0 0.0 0.00 0.00 0.00 94 1020.1
20260507143509 52 229 0.0 0.0 0.00 0.00 0.00 94 1020.1
20260507143008 52 229 0.0 0.0 0.00 0.00 0.00 95 1020.1
20260507142459 52 229 0.0 0.0 0.00 0.00 0.00 95 1020.0
20260507141942 51 229 0.0 0.0 0.00 0.00 0.00 95 1019.9
20260507141422 51 229 0.0 0.0 0.00 0.00 0.00 95 1020.0
20260507140921 51 229 0.0 0.0 0.00 0.00 0.00 95 1020.0
20260507140423 51 229 0.0 0.0 0.00 0.00 0.00 95 1019.9
20260507135921 51 229 0.0 0.0 0.00 0.00 0.00 95 1019.9